This is the latest recevied weather packets stored in our database for station/object WW3TRG. If no packets are shown the sender has not sent any weather packets the latest 10 day(s).
| Time | Temp. | Humidity | Pressure | Rain* | Wind** | Luminosity | Snow |
|---|---|---|---|---|---|---|---|
| 1777809939 | 7.22° C | 61% | 1013.3 hPa | 0 mm | - | 176 W/m² | - |
| 1777809637 | 7.78° C | 62% | 1013.3 hPa | 0 mm | - | 168 W/m² | - |
| 1777809334 | 7.78° C | 62% | 1013.3 hPa | 0 mm | - | 143 W/m² | - |
| 1777809032 | 7.78° C | 62% | 1013.1 hPa | 0 mm | - | 146 W/m² | - |
| 1777808729 | 7.22° C | 63% | 1013.3 hPa | 0 mm | - | 150 W/m² | - |
| 1777808426 | 7.78° C | 62% | 1013.3 hPa | 0 mm | - | 138 W/m² | - |
| 1777808124 | 7.78° C | 62% | 1013.2 hPa | 0 mm | - | 122 W/m² | - |
| 1777807822 | 7.22° C | 65% | 1013.2 hPa | 0 mm | - | 100 W/m² | - |
| 1777807520 | 6.67° C | 66% | 1013.2 hPa | 0 mm | - | 86 W/m² | - |
| 1777807215 | 6.11° C | 69% | 1013.1 hPa | 0 mm | - | 49 W/m² | - |
| 1777806912 | 6.11° C | 70% | 1013 hPa | 0 mm | - | 55 W/m² | - |
| 1777806609 | 5.56° C | 69% | 1012.9 hPa | 0 mm | - | 34 W/m² | - |
| 1777806305 | 5.56° C | 70% | 1013 hPa | 0 mm | - | 29 W/m² | - |
| 1777806002 | 5.56° C | 69% | 1013 hPa | 0 mm | - | 29 W/m² | - |
| 1777805698 | 6.11° C | 66% | 1012.5 hPa | 0 mm | - | 33 W/m² | - |
| 1777805395 | 6.11° C | 68% | 1012.8 hPa | 0 mm | - | 29 W/m² | - |
| 1777805094 | 5.56° C | 67% | 1012.3 hPa | 0 mm | - | 22 W/m² | - |
| 1777804791 | 6.11° C | 67% | 1012.6 hPa | 0 mm | - | 16 W/m² | - |
| 1777804489 | 6.11° C | 67% | 1012.3 hPa | 0 mm | - | 16 W/m² | - |
| 1777804186 | 6.11° C | 68% | 1012.2 hPa | 0 mm | - | 12 W/m² | - |
| 1777803883 | 5.56° C | 69% | 1012.3 hPa | 0 mm | - | 9 W/m² | - |
| 1777803579 | 5.56° C | 72% | 1012 hPa | 0 mm | - | 5 W/m² | - |
| 1777803277 | 5.56° C | 69% | 1012.1 hPa | 0 mm | - | 1 W/m² | - |
| 1777802973 | 6.11° C | 69% | 1012.2 hPa | 0 mm | - | 0 W/m² | - |
| 1777802671 | 5.56° C | 69% | 1011.9 hPa | 0 mm | - | 0 W/m² | - |
* Rain latest hour (hover to see other rain measurements)
** Current wind speed in m/s (hover to see current wind gust speed)